Retour au catalogue

FENGYUN 1C DEB

ActifSSO
NORAD 29950·DEBRIS·🇨🇳 China

Lancé May 10, 1999 depuis Taiyuan Satellite Launch Center

Loading…

Prochains Passages (prochaines 24 heures)

TLE

FraisSource: Space-Track

Époque: Sep 14, 2026, 08:33 UTC

1 29950U 99025JY  26257.35668037  .00000046  00000-0  49457-4 0  9993
2 29950  98.7134 285.3291 0033194 179.8629 248.0550 14.10440149 11768

Suivez FENGYUN 1C DEB en temps réel avec AllMySat

Download on the App Store